Location: Northcutt
(34.7304°N, 84.4305°W)
Time: 21:51:18
(UTC+00:00)

A-11 Canister half - Pass Details

Date: 04 October 2022
Orbit: 1524 x 1685 km, 47.3° (Epoch: 05 December)

Event Time Altitude Azimuth Distance (km) Brightness Sun altitude
Rises 03:26:22 0° 304° (NW) 4,736 12.2 -48.8°
Reaches altitude 10° 03:29:25 10° 302° (WNW) 3,769 11.5 -49.3°
Enters shadow 03:34:19 35° 291° (WNW) 2,366 10.1 -50.0°
